Rbgn^[z[y[W
メイン
   新天体発見情報
     Comet C/2020 F8 (SWAN)
投稿するにはまず登録を

スレッド表示 | 古いものから 前のトピック | 次のトピック | 下へ
投稿者 スレッド
佐藤裕久
投稿日時: 2020-5-5 14:38
モデレータ
登録日: 2005-6-12
居住地: 日本
投稿: 2505
オンライン
Comet C/2020 F8 (SWAN)

Michael Mattiazzo (Swan Hill, VIC, オーストラリア)の通報によると、3月25日のSolar 
and Heliospheric Observatory (SOHO: 太陽・太陽圏観測機)衛星に積載されている
Solar Wind Anisotropies (SWAN: 太陽風異方性検出装置)カメラの画像データからこの
天体を検出した。地上からフォローアップ観測が行われた。

彗星機能の報告は次の通り:

OC   Date        Reporter           Coma    Tail    PA          Exposures
Q56  2020-04-11  E. Guido            8'      25'    220         3x120s
Q38  2020-04-11  M. Mattiazzo        4'      15'    223
Q62  2020-04-12  B. Ltkenhner        4'      18'    224
Q62  2020-04-12  N. Paul             5'.6     6'    219         2x60s
Q62  2020-04-12  K. Yoshimoto        7'.3    13'    220         4x60s
Q62  2020-04-12  E. Guido            3'                         10x30s
Q63  2020-04-12  P. Breitenstein     2'.3     7'    220         6x70s
Q62  2020-04-12  H. Sato             5'.5    20'    220

発見位置は次のとおり、

     2020 UT           R.A. (2000) Decl.
     Mar. 26.5       22 14         -44 45
     Apr.  1.5       22 23         -43 15
           2.5       22 29         -42 20
           3.5       22 34         -41 30
           4.5       22 39         -40 45
           5.5       22 42         -40 00
           6.5       22 46         -39 15
           7.5       22 51         -38 30

MPCの放物線軌道要素と位置推算表は次のとおり、

Orbital elements:
    C/2020 F8 (SWAN)                                                            
Epoch 2020 May 31.0 TT = JDT 2459000.5                                          
T 2020 May 27.59223 TT                                  Rudenko                 
q   0.4295541            (2000.0)            P               Q                  
z  +0.0000111      Peri.   68.33064     -0.38667804     +0.03006559             
 +/-0.0000000      Node   260.17022     -0.62816555     +0.72316900             
e   0.9999952      Incl.  110.69778     +0.67519489     +0.69001642             
From 90 observations 2020 Apr. 9-2020 Apr. 12, mean residual 0".8.               
                                                                                
Ephemeris:
Date    TT    R. A. (2000) Decl.     Delta      r    Elong.  Phase   m1
2020 03 13    22 07 03.0 -48 08 00   2.1187  1.6442    48.8    27.1  11.8
...
2020 03 28    22 30 40.9 -43 43 34   1.7316  1.3934    53.6    35.2  10.6
...
2020 04 05    22 44 39.9 -40 41 37   1.5071  1.2544    55.7    41.2   9.9
...
2020 04 11    22 56 25.3 -37 48 51   1.3318  1.1476    56.8    47.0   9.2
2020 04 12    22 58 32.1 -37 15 39   1.3021  1.1296    56.9    48.0   9.1
2020 04 13    23 00 42.3 -36 40 53   1.2722  1.1116    57.0    49.2   9.0
...
2020 04 19    23 15 10.3 -32 30 34   1.0915  1.0022    56.9    57.1   8.2
...
2020 04 27    23 40 35.7 -23 54 00   0.8530  0.8542    53.9    72.3   7.0
...
2020 05 12    01 17 42.4 +14 52 01   0.5572  0.5849    28.5   124.4   4.4

(CBET 4750. 4752、MPEC 2020-G94) 

スレッド表示 | 古いものから 前のトピック | 次のトピック | トップ

投稿するにはまず登録を
 
© 1999 Tsutomu Seki.